Weather in Sennar

Sudan     13°32′41″N   33°36′34″E
temp.,
°C
wind,
m/s
gust,
m/s
humid.,
%
clouds,
%
prec.,
mm/h
press.,
hPa
HPBL,
m
5 august, thu
thu523:00+29s5860100 0.0 1013321
02:00+27sse587061 0.0 1012328
05:00+24se5879100 1.6 1014268
08:00+27s686678 2.0 1014416
11:00+33s66428 0.0 10131561
14:00+35sse653640 0.0 10102636
17:00+31sw355015 0.2 1009450
20:00+26ssw810647 0.3 1012287
6 august, fri
fri623:00+26ssw2458100 0.1 1012160
02:00+26s356397 0.1 1012209
05:00+25s366998 0.0 1011218
08:00+28s4564100 0.0 1013522
11:00+32s5547100 0.0 10121391
14:00+34ssw4338100 0.0 10092368
17:00+34ssw4338100 0.0 10071830
20:00+31ssw6849100 0.0 1009514
7 august, sat
sat723:00+27ssw4764100 1.0 1011394
02:00+26w5767100 1.4 1011504
05:00+25s4671100 0.2 1010284
08:00+28s695897 0.2 1012578
11:00+33s78425 0.0 10101763
14:00+35ssw7635100 0.1 10082917
17:00+26s9117198 0.9 1009391
20:00+29ssw355948 2.1 1010235
8 august, sun
sun823:00+27ssw35699 0.3 1012316
02:00+27ssw4771100 0.3 1011435
05:00+26ssw4873100 0.0 1013466
08:00+27ssw5665100 0.0 1014529
11:00+29ssw6659100 1.1 1014966
14:00+28sw5661100 3.4 1013704
17:00+30sw4549100 0.0 10111123
20:00+26ssw4563100 0.0 1013230
9 august, mon
mon923:00+25s4667100 0.0 1014262
02:00+24s467367 0.0 1012245
05:00+24s467291 0.0 1013222
08:00+25ssw5764100 0.0 1014410
11:00+30ssw5550100 0.0 10141000
14:00+33sw4440100 0.0 10101612
17:00+32sw644258 0.0 10091818
20:00+29sw565499 0.0 1011387